User: anonymous
Location: Hamburg
(53.5500°N, 10.0000°E)
Time: 03:48:39
(UTC+02:00)
Language:

Iridium 10 - Orbit

View from above orbital plane
View from above orbital plane
View from above satellite
View from above satellite

Ground track
Ground track

The orbit data is extracted from the following two-line orbital elements,

1 24839U 97030D   14108.46526332  .00000261  00000-0  86137-4 0  8054
2 24839 086.3932 113.2153 0002283 103.5645 048.7706 14.34214549881303
Epoch (UTC): 18 April 2014 11:09:58
Eccentricity: 0.0002283
inclination: 86.3932°
perigee height: 776 km
apogee height: 779 km
right ascension of ascending node: 113.2153°
argument of perigee: 103.5645°
revolutions per day: 14.34214549
mean anomaly at epoch: 48.7706°
orbit number at epoch: 88130

The dashed part of the orbit path shows where the satellite is in the earth's shadow,  

DLR